Precipitable_Water
0.24 0.24 0.24 0.24 0.24 0.22 0.22 0.22 0.22 0.22 0.22 0.22 0.24 0.24 0.26 0.26 0.26 0.24 0.22 0.22 0.22 0.22 0.24 0.24 0.24 0.26 0.26 0.26 0.26 0.24 0.24 0.26 0.26 0.28 0.28 0.30 0.30 0.30 0.30 0.28 0.26 0.28 0.28 0.30 0.32 0.32 0.32 0.32 0.30 0.30 0.30 0.30 0.28 0.28 0.26 0.28 0.28 0.28 0.28 0.28 0.28 0.28 0.28 0.28 0.28 0.30 0.30 0.32 0.34 0.36 0.38 0.36 0.38 0.38 0.36 0.36 0.38 0.40 0.42 0.42 0.42 0.42 0.42 0.38 0.38 0.36
0.22 0.24 0.24 0.24 0.22 0.22 0.22 0.22 0.22 0.24 0.22 0.24 0.24 0.24 0.24 0.24 0.22 0.22 0.22 0.24 0.24 0.24 0.26 0.26 0.26 0.26 0.26 0.26 0.26 0.26 0.26 0.28 0.28 0.28 0.30 0.28 0.28 0.28 0.28 0.26 0.26 0.28 0.28 0.32 0.32 0.32 0.32 0.30 0.30 0.28 0.26 0.26 0.26 0.26 0.28 0.28 0.28 0.28 0.28 0.28 0.28 0.26 0.26 0.28 0.28 0.30 0.30 0.30 0.30 0.30 0.32 0.32 0.32 0.32 0.32 0.34 0.38 0.38 0.40 0.40 0.40 0.40 0.40 0.38 0.38 0.36
0.22 0.22 0.22 0.22 0.22 0.22 0.22 0.22 0.22 0.24 0.24 0.24 0.24 0.22 0.22 0.22 0.22 0.22 0.24 0.24 0.26 0.26 0.26 0.26 0.26 0.26 0.26 0.26 0.26 0.26 0.28 0.28 0.28 0.28 0.28 0.26 0.26 0.26 0.26 0.26 0.28 0.28 0.30 0.30 0.30 0.30 0.30 0.28 0.28 0.26 0.26 0.26 0.26 0.28 0.28 0.28 0.28 0.28 0.26 0.26 0.26 0.26 0.26 0.28 0.28 0.28 0.30 0.30 0.30 0.30 0.30 0.32 0.32 0.34 0.34 0.36 0.36 0.36 0.38 0.38 0.38 0.38 0.40 0.40 0.38 0.36
0.22 0.22 0.22 0.22 0.22 0.22 0.22 0.22 0.22 0.24 0.24 0.24 0.24 0.24 0.24 0.24 0.24 0.24 0.26 0.26 0.26 0.26 0.26 0.26 0.26 0.26 0.24 0.26 0.26 0.28 0.28 0.26 0.26 0.26 0.26 0.24 0.24 0.24 0.26 0.26 0.26 0.28 0.28 0.26 0.26 0.26 0.26 0.26 0.26 0.26 0.26 0.26 0.28 0.28 0.28 0.28 0.28 0.26 0.26 0.26 0.26 0.28 0.28 0.28 0.28 0.30 0.30 0.30 0.30 0.32 0.32 0.34 0.34 0.36 0.36 0.36 0.36 0.36 0.36 0.36 0.38 0.40 0.40 0.40 0.38 0.38
0.22 0.22 0.22 0.22 0.22 0.22 0.22 0.22 0.22 0.22 0.22 0.22 0.24 0.24 0.26 0.26 0.26 0.26 0.26 0.26 0.26 0.24 0.22 0.24 0.24 0.24 0.24 0.24 0.26 0.26 0.26 0.24 0.24 0.24 0.24 0.24 0.24 0.24 0.24 0.24 0.24 0.24 0.24 0.24 0.24 0.26 0.26 0.26 0.26 0.26 0.26 0.28 0.28 0.28 0.26 0.26 0.26 0.26 0.26 0.26 0.28 0.28 0.30 0.30 0.30 0.32 0.32 0.32 0.32 0.34 0.34 0.34 0.34 0.36 0.36 0.34 0.36 0.36 0.36 0.36 0.36 0.38 0.38 0.38 0.38 0.38
0.22 0.22 0.22 0.20 0.20 0.20 0.22 0.22 0.22 0.22 0.22 0.24 0.24 0.26 0.26 0.26 0.26 0.24 0.24 0.22 0.22 0.22 0.20 0.22 0.22 0.22 0.22 0.22 0.22 0.24 0.24 0.22 0.22 0.22 0.22 0.22 0.22 0.22 0.22 0.22 0.22 0.24 0.24 0.24 0.24 0.24 0.26 0.24 0.26 0.26 0.26 0.26 0.28 0.26 0.26 0.26 0.26 0.26 0.26 0.28 0.28 0.28 0.30 0.30 0.32 0.32 0.32 0.34 0.34 0.34 0.34 0.32 0.32 0.32 0.34 0.32 0.32 0.34 0.34 0.34 0.34 0.34 0.34 0.34 0.34 0.36
0.22 0.22 0.20 0.20 0.20 0.22 0.22 0.22 0.22 0.24 0.24 0.24 0.26 0.26 0.26 0.26 0.24 0.20 0.20 0.20 0.20 0.20 0.20 0.20 0.20 0.20 0.20 0.20 0.20 0.20 0.20 0.20 0.20 0.20 0.20 0.20 0.20 0.22 0.22 0.22 0.22 0.22 0.24 0.22 0.24 0.24 0.24 0.24 0.24 0.26 0.26 0.26 0.26 0.26 0.24 0.24 0.24 0.26 0.26 0.26 0.28 0.28 0.28 0.30 0.30 0.30 0.30 0.32 0.30 0.30 0.32 0.30 0.30 0.30 0.30 0.30 0.30 0.32 0.32 0.32 0.32 0.32 0.32 0.32 0.34 0.34
0.20 0.20 0.20 0.20 0.20 0.22 0.22 0.22 0.24 0.26 0.26 0.26 0.26 0.24 0.22 0.22 0.20 0.19 0.19 0.19 0.19 0.19 0.19 0.19 0.19 0.20 0.19 0.19 0.20 0.20 0.20 0.20 0.20 0.20 0.20 0.20 0.20 0.22 0.22 0.22 0.22 0.22 0.22 0.22 0.22 0.22 0.24 0.24 0.24 0.24 0.24 0.24 0.24 0.24 0.24 0.24 0.24 0.24 0.24 0.24 0.26 0.26 0.26 0.28 0.28 0.28 0.28 0.28 0.28 0.28 0.28 0.28 0.28 0.28 0.28 0.28 0.28 0.30 0.30 0.30 0.30 0.30 0.30 0.32 0.32 0.34
0.19 0.19 0.20 0.20 0.20 0.22 0.22 0.24 0.26 0.28 0.28 0.28 0.24 0.20 0.20 0.19 0.19 0.19 0.17 0.19 0.19 0.19 0.19 0.19 0.19 0.19 0.19 0.19 0.19 0.20 0.20 0.20 0.20 0.20 0.20 0.20 0.20 0.22 0.22 0.22 0.22 0.22 0.22 0.22 0.22 0.22 0.22 0.22 0.24 0.24 0.24 0.24 0.24 0.24 0.22 0.22 0.22 0.22 0.24 0.24 0.24 0.26 0.26 0.26 0.26 0.26 0.26 0.28 0.28 0.28 0.28 0.28 0.28 0.28 0.28 0.28 0.28 0.28 0.28 0.28 0.28 0.30 0.30 0.32 0.34 0.36
0.20 0.20 0.20 0.22 0.22 0.22 0.22 0.24 0.26 0.26 0.26 0.26 0.22 0.20 0.20 0.19 0.17 0.17 0.17 0.17 0.17 0.17 0.19 0.19 0.19 0.19 0.19 0.19 0.19 0.20 0.20 0.20 0.20 0.20 0.20 0.22 0.22 0.22 0.22 0.22 0.22 0.20 0.20 0.22 0.22 0.22 0.22 0.24 0.24 0.24 0.24 0.22 0.22 0.22 0.22 0.22 0.22 0.22 0.24 0.24 0.24 0.24 0.26 0.26 0.28 0.28 0.28 0.28 0.28 0.28 0.28 0.28 0.30 0.30 0.30 0.30 0.30 0.30 0.30 0.30 0.30 0.30 0.32 0.34 0.36 0.36
0.20 0.20 0.20 0.22 0.24 0.26 0.26 0.24 0.24 0.24 0.22 0.22 0.20 0.19 0.19 0.19 0.17 0.17 0.17 0.17 0.17 0.17 0.17 0.19 0.19 0.19 0.19 0.19 0.19 0.20 0.20 0.20 0.20 0.20 0.20 0.22 0.22 0.22 0.22 0.22 0.22 0.22 0.22 0.22 0.24 0.24 0.24 0.24 0.24 0.24 0.24 0.22 0.22 0.22 0.22 0.22 0.22 0.22 0.24 0.24 0.24 0.26 0.26 0.28 0.28 0.28 0.28 0.28 0.28 0.28 0.28 0.28 0.28 0.30 0.30 0.32 0.32 0.32 0.32 0.32 0.32 0.32 0.36 0.36 0.36 0.38
0.20 0.22 0.24 0.24 0.24 0.26 0.26 0.22 0.22 0.20 0.20 0.20 0.19 0.17 0.17 0.17 0.17 0.17 0.17 0.17 0.17 0.17 0.17 0.19 0.19 0.19 0.20 0.20 0.20 0.20 0.20 0.20 0.20 0.20 0.20 0.22 0.22 0.22 0.22 0.24 0.24 0.24 0.24 0.24 0.24 0.24 0.24 0.24 0.22 0.22 0.22 0.22 0.22 0.22 0.22 0.22 0.22 0.24 0.24 0.26 0.26 0.26 0.28 0.28 0.28 0.28 0.28 0.28 0.28 0.28 0.28 0.28 0.30 0.30 0.32 0.32 0.34 0.34 0.34 0.34 0.34 0.36 0.38 0.38 0.38 0.38
0.22 0.24 0.24 0.24 0.24 0.22 0.22 0.20 0.19 0.19 0.19 0.19 0.17 0.17 0.17 0.17 0.17 0.17 0.17 0.17 0.17 0.17 0.17 0.17 0.19 0.19 0.20 0.20 0.20 0.20 0.20 0.20 0.20 0.22 0.22 0.22 0.24 0.24 0.24 0.26 0.26 0.26 0.26 0.24 0.24 0.24 0.24 0.22 0.22 0.22 0.22 0.22 0.22 0.22 0.22 0.22 0.22 0.24 0.24 0.24 0.26 0.26 0.26 0.28 0.28 0.28 0.28 0.28 0.28 0.28 0.30 0.30 0.30 0.32 0.32 0.34 0.36 0.36 0.36 0.36 0.36 0.38 0.38 0.38 0.38 0.38
0.22 0.22 0.22 0.22 0.20 0.20 0.20 0.19 0.19 0.19 0.17 0.19 0.19 0.19 0.17 0.19 0.17 0.17 0.17 0.17 0.17 0.17 0.19 0.19 0.19 0.19 0.20 0.20 0.22 0.22 0.22 0.22 0.22 0.22 0.22 0.24 0.26 0.26 0.26 0.26 0.26 0.26 0.26 0.24 0.24 0.24 0.22 0.22 0.22 0.22 0.22 0.22 0.22 0.22 0.22 0.22 0.22 0.24 0.24 0.26 0.26 0.26 0.28 0.28 0.28 0.28 0.28 0.28 0.30 0.32 0.32 0.32 0.32 0.34 0.34 0.34 0.36 0.36 0.36 0.36 0.38 0.38 0.38 0.38 0.38 0.40
0.22 0.22 0.20 0.20 0.20 0.20 0.19 0.19 0.19 0.19 0.19 0.19 0.19 0.19 0.19 0.19 0.17 0.17 0.17 0.17 0.17 0.19 0.19 0.19 0.19 0.20 0.20 0.22 0.22 0.22 0.22 0.24 0.24 0.24 0.24 0.24 0.26 0.28 0.28 0.26 0.24 0.24 0.24 0.24 0.22 0.22 0.24 0.22 0.22 0.22 0.22 0.22 0.22 0.22 0.22 0.22 0.22 0.24 0.26 0.26 0.26 0.26 0.28 0.28 0.28 0.30 0.32 0.32 0.32 0.32 0.32 0.32 0.34 0.34 0.34 0.34 0.36 0.36 0.36 0.36 0.36 0.36 0.38 0.38 0.38 0.38
0.22 0.22 0.20 0.20 0.20 0.19 0.19 0.19 0.19 0.19 0.19 0.19 0.19 0.17 0.17 0.17 0.17 0.17 0.17 0.17 0.17 0.19 0.19 0.19 0.19 0.20 0.20 0.22 0.24 0.24 0.24 0.26 0.24 0.24 0.24 0.24 0.24 0.26 0.26 0.26 0.24 0.24 0.24 0.22 0.22 0.22 0.24 0.22 0.22 0.22 0.22 0.22 0.22 0.22 0.22 0.22 0.24 0.24 0.26 0.26 0.28 0.28 0.30 0.32 0.32 0.34 0.34 0.34 0.32 0.32 0.30 0.30 0.32 0.32 0.32 0.34 0.34 0.36 0.36 0.36 0.36 0.36 0.36 0.36 0.38 0.38
0.22 0.20 0.20 0.19 0.19 0.19 0.19 0.19 0.19 0.19 0.19 0.19 0.17 0.17 0.17 0.17 0.17 0.19 0.19 0.19 0.19 0.19 0.20 0.20 0.19 0.19 0.20 0.20 0.22 0.24 0.26 0.24 0.24 0.24 0.24 0.22 0.24 0.24 0.26 0.24 0.24 0.22 0.22 0.22 0.22 0.22 0.22 0.22 0.22 0.22 0.22 0.22 0.22 0.22 0.22 0.24 0.26 0.26 0.26 0.28 0.28 0.30 0.34 0.34 0.34 0.34 0.32 0.32 0.32 0.32 0.30 0.30 0.32 0.32 0.32 0.34 0.34 0.34 0.34 0.34 0.34 0.34 0.34 0.34 0.34 0.36
0.22 0.20 0.20 0.19 0.19 0.19 0.19 0.19 0.19 0.19 0.19 0.17 0.17 0.17 0.17 0.19 0.19 0.20 0.20 0.20 0.20 0.20 0.20 0.20 0.20 0.20 0.20 0.20 0.22 0.24 0.26 0.24 0.24 0.22 0.22 0.22 0.22 0.24 0.26 0.24 0.22 0.22 0.22 0.22 0.22 0.22 0.22 0.22 0.22 0.22 0.22 0.22 0.22 0.22 0.24 0.24 0.26 0.26 0.28 0.32 0.32 0.32 0.30 0.32 0.32 0.32 0.32 0.32 0.32 0.32 0.32 0.32 0.32 0.32 0.32 0.32 0.32 0.32 0.32 0.34 0.34 0.34 0.34 0.34 0.34 0.34
0.20 0.20 0.20 0.19 0.19 0.19 0.19 0.19 0.19 0.17 0.17 0.19 0.19 0.19 0.19 0.19 0.20 0.22 0.22 0.22 0.22 0.22 0.22 0.22 0.20 0.20 0.20 0.22 0.22 0.24 0.24 0.24 0.24 0.22 0.22 0.22 0.22 0.24 0.24 0.24 0.22 0.22 0.22 0.22 0.22 0.22 0.22 0.22 0.22 0.22 0.22 0.22 0.24 0.24 0.24 0.28 0.30 0.30 0.32 0.30 0.30 0.30 0.30 0.30 0.30 0.32 0.32 0.32 0.32 0.34 0.34 0.34 0.34 0.34 0.34 0.34 0.34 0.34 0.32 0.34 0.34 0.34 0.34 0.34 0.34 0.34
0.19 0.19 0.19 0.19 0.19 0.19 0.17 0.17 0.19 0.19 0.19 0.20 0.20 0.20 0.20 0.20 0.22 0.22 0.24 0.24 0.22 0.22 0.22 0.22 0.22 0.22 0.22 0.22 0.22 0.24 0.24 0.24 0.24 0.22 0.22 0.22 0.22 0.22 0.24 0.22 0.22 0.20 0.20 0.20 0.22 0.22 0.22 0.22 0.22 0.22 0.22 0.24 0.24 0.26 0.26 0.30 0.30 0.28 0.28 0.28 0.28 0.28 0.30 0.30 0.32 0.32 0.32 0.32 0.34 0.34 0.34 0.34 0.34 0.36 0.36 0.34 0.34 0.34 0.34 0.34 0.34 0.34 0.34 0.34 0.34 0.34
0.19 0.19 0.19 0.19 0.19 0.19 0.19 0.19 0.19 0.19 0.20 0.22 0.22 0.22 0.22 0.22 0.22 0.22 0.24 0.24 0.22 0.22 0.22 0.22 0.22 0.22 0.22 0.22 0.22 0.22 0.24 0.26 0.26 0.24 0.22 0.20 0.20 0.22 0.22 0.22 0.20 0.20 0.20 0.20 0.22 0.22 0.22 0.22 0.22 0.22 0.22 0.26 0.28 0.30 0.30 0.26 0.24 0.24 0.26 0.26 0.28 0.28 0.30 0.30 0.30 0.30 0.32 0.32 0.32 0.34 0.34 0.34 0.36 0.36 0.36 0.36 0.36 0.36 0.36 0.36 0.34 0.34 0.34 0.34 0.34 0.32
0.19 0.19 0.19 0.19 0.19 0.19 0.20 0.20 0.20 0.22 0.22 0.24 0.24 0.24 0.24 0.24 0.22 0.22 0.22 0.22 0.22 0.22 0.22 0.22 0.22 0.22 0.24 0.24 0.24 0.26 0.26 0.26 0.24 0.22 0.22 0.20 0.20 0.20 0.22 0.22 0.22 0.20 0.20 0.20 0.20 0.20 0.22 0.22 0.24 0.26 0.26 0.26 0.26 0.24 0.24 0.24 0.24 0.24 0.26 0.28 0.28 0.28 0.30 0.30 0.30 0.30 0.32 0.32 0.32 0.34 0.34 0.36 0.36 0.36 0.36 0.36 0.36 0.38 0.38 0.38 0.36 0.36 0.36 0.34 0.34 0.32
0.20 0.20 0.20 0.20 0.20 0.20 0.22 0.24 0.24 0.26 0.26 0.26 0.26 0.24 0.24 0.24 0.24 0.24 0.24 0.24 0.24 0.24 0.24 0.24 0.24 0.24 0.26 0.26 0.26 0.26 0.26 0.24 0.24 0.22 0.20 0.19 0.19 0.20 0.22 0.22 0.20 0.20 0.20 0.20 0.20 0.20 0.22 0.24 0.24 0.26 0.26 0.24 0.22 0.22 0.22 0.24 0.24 0.26 0.26 0.26 0.28 0.28 0.30 0.30 0.30 0.32 0.32 0.34 0.34 0.34 0.34 0.36 0.36 0.36 0.36 0.38 0.38 0.38 0.38 0.38 0.38 0.36 0.36 0.34 0.34 0.32
0.22 0.22 0.22 0.22 0.22 0.24 0.26 0.26 0.26 0.26 0.28 0.26 0.26 0.26 0.26 0.26 0.26 0.26 0.26 0.26 0.26 0.26 0.26 0.26 0.26 0.26 0.24 0.26 0.26 0.24 0.24 0.24 0.24 0.24 0.22 0.20 0.20 0.20 0.22 0.20 0.20 0.19 0.19 0.20 0.20 0.22 0.22 0.22 0.24 0.24 0.24 0.22 0.22 0.24 0.24 0.24 0.26 0.26 0.26 0.28 0.28 0.28 0.30 0.30 0.32 0.32 0.34 0.34 0.34 0.34 0.34 0.34 0.34 0.36 0.38 0.38 0.38 0.38 0.38 0.38 0.36 0.36 0.36 0.34 0.34 0.34
0.24 0.24 0.24 0.24 0.26 0.26 0.26 0.26 0.26 0.26 0.26 0.26 0.26 0.26 0.28 0.28 0.28 0.28 0.28 0.28 0.26 0.26 0.24 0.24 0.24 0.24 0.22 0.22 0.22 0.22 0.22 0.24 0.24 0.24 0.22 0.20 0.20 0.20 0.20 0.22 0.20 0.20 0.19 0.20 0.20 0.22 0.22 0.22 0.22 0.22 0.22 0.22 0.22 0.24 0.24 0.24 0.26 0.26 0.26 0.28 0.28 0.30 0.30 0.32 0.32 0.34 0.34 0.34 0.34 0.34 0.36 0.36 0.36 0.36 0.38 0.38 0.36 0.36 0.36 0.36 0.34 0.34 0.34 0.34 0.34 0.34
0.26 0.26 0.26 0.26 0.26 0.26 0.26 0.26 0.26 0.26 0.26 0.28 0.28 0.28 0.28 0.28 0.28 0.26 0.26 0.26 0.26 0.24 0.24 0.22 0.22 0.22 0.22 0.22 0.22 0.22 0.24 0.24 0.24 0.24 0.22 0.20 0.20 0.20 0.22 0.22 0.20 0.20 0.20 0.20 0.22 0.22 0.22 0.20 0.20 0.20 0.22 0.22 0.22 0.24 0.24 0.24 0.26 0.26 0.26 0.28 0.30 0.30 0.32 0.32 0.34 0.34 0.36 0.36 0.36 0.36 0.36 0.36 0.36 0.36 0.36 0.36 0.36 0.34 0.34 0.34 0.34 0.34 0.34 0.34 0.34 0.34
0.26 0.26 0.26 0.26 0.26 0.26 0.26 0.26 0.26 0.26 0.28 0.28 0.28 0.28 0.28 0.28 0.26 0.24 0.24 0.24 0.24 0.24 0.22 0.22 0.22 0.20 0.20 0.22 0.22 0.22 0.22 0.24 0.24 0.24 0.22 0.22 0.22 0.20 0.22 0.22 0.22 0.22 0.20 0.20 0.20 0.20 0.20 0.20 0.20 0.22 0.22 0.24 0.24 0.24 0.24 0.26 0.26 0.28 0.28 0.30 0.30 0.32 0.32 0.34 0.34 0.34 0.34 0.34 0.34 0.36 0.36 0.36 0.36 0.36 0.36 0.34 0.34 0.34 0.34 0.34 0.34 0.34 0.34 0.34 0.34 0.34
0.24 0.24 0.24 0.24 0.24 0.26 0.26 0.26 0.26 0.28 0.28 0.28 0.28 0.28 0.28 0.28 0.26 0.24 0.24 0.24 0.24 0.24 0.22 0.22 0.20 0.20 0.20 0.22 0.22 0.22 0.24 0.24 0.24 0.24 0.24 0.24 0.22 0.22 0.22 0.22 0.22 0.22 0.20 0.20 0.20 0.20 0.20 0.20 0.22 0.22 0.22 0.24 0.24 0.24 0.26 0.26 0.28 0.28 0.28 0.30 0.30 0.32 0.32 0.32 0.34 0.34 0.34 0.34 0.34 0.36 0.36 0.36 0.36 0.36 0.34 0.34 0.34 0.34 0.34 0.34 0.34 0.36 0.34 0.36 0.36 0.34
0.22 0.24 0.24 0.24 0.26 0.26 0.26 0.26 0.28 0.28 0.28 0.28 0.28 0.28 0.28 0.28 0.26 0.24 0.24 0.26 0.24 0.24 0.22 0.22 0.22 0.22 0.22 0.22 0.22 0.24 0.24 0.24 0.24 0.26 0.26 0.24 0.22 0.22 0.22 0.22 0.22 0.22 0.20 0.20 0.20 0.20 0.20 0.20 0.22 0.22 0.22 0.22 0.24 0.24 0.26 0.26 0.26 0.28 0.28 0.28 0.30 0.30 0.32 0.32 0.34 0.34 0.34 0.36 0.36 0.36 0.36 0.36 0.36 0.36 0.36 0.36 0.36 0.36 0.36 0.36 0.36 0.36 0.36 0.36 0.36 0.34
0.22 0.24 0.24 0.26 0.26 0.26 0.26 0.26 0.26 0.28 0.28 0.28 0.28 0.28 0.28 0.28 0.28 0.28 0.26 0.26 0.26 0.24 0.24 0.22 0.22 0.22 0.22 0.22 0.22 0.22 0.22 0.22 0.24 0.26 0.26 0.24 0.22 0.22 0.22 0.22 0.22 0.22 0.22 0.20 0.19 0.19 0.19 0.20 0.20 0.22 0.22 0.22 0.24 0.24 0.26 0.26 0.26 0.28 0.28 0.28 0.30 0.32 0.32 0.34 0.36 0.36 0.36 0.36 0.36 0.36 0.36 0.36 0.36 0.36 0.36 0.36 0.36 0.34 0.34 0.34 0.34 0.34 0.34 0.34 0.34 0.34
0.22 0.24 0.24 0.26 0.26 0.26 0.26 0.26 0.28 0.28 0.28 0.28 0.28 0.28 0.30 0.30 0.28 0.28 0.28 0.28 0.26 0.26 0.24 0.24 0.24 0.24 0.24 0.22 0.22 0.20 0.22 0.22 0.24 0.26 0.26 0.24 0.24 0.24 0.24 0.24 0.22 0.22 0.22 0.22 0.20 0.19 0.17 0.19 0.20 0.20 0.22 0.22 0.24 0.24 0.24 0.26 0.26 0.28 0.28 0.30 0.30 0.32 0.34 0.36 0.36 0.36 0.36 0.36 0.36 0.36 0.36 0.36 0.36 0.34 0.34 0.34 0.34 0.34 0.34 0.34 0.34 0.34 0.34 0.34 0.32 0.32
0.24 0.24 0.26 0.26 0.26 0.26 0.28 0.28 0.28 0.28 0.28 0.28 0.28 0.28 0.30 0.30 0.30 0.30 0.30 0.28 0.28 0.26 0.26 0.24 0.24 0.24 0.24 0.22 0.22 0.22 0.24 0.24 0.26 0.28 0.28 0.26 0.24 0.24 0.24 0.24 0.24 0.24 0.24 0.24 0.20 0.19 0.17 0.19 0.19 0.20 0.22 0.22 0.24 0.24 0.24 0.26 0.26 0.28 0.28 0.30 0.32 0.34 0.34 0.34 0.34 0.34 0.36 0.34 0.34 0.36 0.36 0.34 0.34 0.34 0.34 0.34 0.34 0.34 0.34 0.34 0.34 0.34 0.34 0.32 0.32 0.30
0.24 0.26 0.26 0.26 0.26 0.28 0.28 0.28 0.28 0.28 0.28 0.28 0.28 0.28 0.30 0.30 0.30 0.30 0.30 0.30 0.28 0.28 0.26 0.26 0.26 0.24 0.24 0.24 0.24 0.24 0.24 0.26 0.26 0.28 0.28 0.28 0.26 0.26 0.24 0.24 0.24 0.24 0.24 0.24 0.22 0.20 0.19 0.20 0.20 0.20 0.22 0.22 0.24 0.24 0.26 0.26 0.28 0.28 0.30 0.32 0.32 0.34 0.34 0.34 0.34 0.34 0.34 0.34 0.34 0.34 0.34 0.34 0.34 0.34 0.34 0.34 0.34 0.34 0.34 0.34 0.34 0.34 0.34 0.34 0.32 0.32
0.26 0.26 0.26 0.26 0.26 0.28 0.28 0.28 0.28 0.28 0.28 0.28 0.28 0.30 0.30 0.30 0.30 0.30 0.30 0.30 0.30 0.30 0.28 0.28 0.26 0.26 0.24 0.24 0.24 0.24 0.24 0.26 0.28 0.28 0.30 0.28 0.26 0.26 0.26 0.24 0.24 0.24 0.24 0.22 0.22 0.22 0.20 0.20 0.20 0.20 0.20 0.22 0.24 0.24 0.26 0.26 0.28 0.28 0.30 0.32 0.32 0.32 0.32 0.32 0.32 0.32 0.32 0.32 0.34 0.34 0.34 0.34 0.34 0.34 0.36 0.36 0.34 0.36 0.36 0.36 0.36 0.36 0.34 0.34 0.34 0.32
0.26 0.26 0.26 0.26 0.26 0.26 0.28 0.28 0.28 0.28 0.28 0.28 0.28 0.30 0.30 0.30 0.30 0.30 0.30 0.30 0.30 0.30 0.30 0.28 0.28 0.26 0.26 0.24 0.24 0.24 0.26 0.28 0.28 0.30 0.30 0.28 0.28 0.26 0.26 0.26 0.24 0.24 0.22 0.22 0.22 0.22 0.20 0.20 0.20 0.20 0.20 0.22 0.22 0.24 0.26 0.26 0.28 0.28 0.30 0.32 0.32 0.32 0.32 0.32 0.32 0.32 0.32 0.34 0.34 0.34 0.34 0.36 0.36 0.36 0.36 0.36 0.36 0.36 0.36 0.36 0.36 0.36 0.36 0.36 0.36 0.34
0.26 0.26 0.26 0.26 0.26 0.26 0.26 0.26 0.28 0.28 0.28 0.28 0.28 0.28 0.30 0.30 0.30 0.30 0.30 0.30 0.30 0.30 0.30 0.30 0.30 0.30 0.30 0.28 0.28 0.26 0.28 0.30 0.30 0.30 0.30 0.30 0.28 0.26 0.26 0.26 0.26 0.24 0.22 0.22 0.22 0.22 0.20 0.20 0.22 0.22 0.22 0.22 0.22 0.22 0.24 0.26 0.26 0.28 0.30 0.32 0.32 0.30 0.30 0.32 0.32 0.32 0.34 0.34 0.34 0.36 0.36 0.36 0.38 0.38 0.38 0.38 0.38 0.38 0.38 0.38 0.36 0.36 0.36 0.36 0.36 0.36
0.26 0.26 0.26 0.26 0.26 0.26 0.26 0.26 0.28 0.28 0.28 0.28 0.28 0.28 0.30 0.30 0.30 0.30 0.30 0.30 0.30 0.32 0.32 0.32 0.32 0.32 0.32 0.30 0.30 0.30 0.30 0.30 0.30 0.32 0.32 0.30 0.30 0.28 0.26 0.28 0.28 0.26 0.26 0.24 0.24 0.22 0.22 0.22 0.22 0.22 0.22 0.22 0.22 0.22 0.24 0.26 0.26 0.28 0.30 0.30 0.30 0.30 0.32 0.34 0.34 0.34 0.34 0.36 0.36 0.36 0.36 0.38 0.38 0.38 0.38 0.40 0.40 0.40 0.40 0.40 0.38 0.38 0.38 0.38 0.38 0.38
0.26 0.26 0.26 0.26 0.26 0.26 0.26 0.26 0.26 0.28 0.28 0.28 0.28 0.28 0.30 0.30 0.30 0.30 0.30 0.32 0.32 0.32 0.32 0.32 0.32 0.32 0.32 0.32 0.32 0.32 0.32 0.32 0.32 0.32 0.32 0.32 0.30 0.30 0.28 0.28 0.28 0.28 0.26 0.26 0.26 0.24 0.22 0.22 0.22 0.22 0.22 0.22 0.22 0.24 0.24 0.26 0.28 0.30 0.30 0.30 0.32 0.32 0.32 0.34 0.36 0.36 0.36 0.36 0.38 0.38 0.38 0.40 0.40 0.40 0.40 0.42 0.42 0.42 0.42 0.40 0.40 0.40 0.40 0.38 0.38 0.38
0.26 0.26 0.26 0.26 0.26 0.26 0.26 0.26 0.28 0.28 0.28 0.30 0.30 0.30 0.30 0.30 0.30 0.32 0.32 0.32 0.32 0.32 0.32 0.32 0.32 0.32 0.32 0.32 0.32 0.32 0.32 0.32 0.32 0.32 0.32 0.32 0.32 0.30 0.28 0.28 0.28 0.28 0.28 0.28 0.26 0.26 0.24 0.22 0.22 0.22 0.22 0.22 0.22 0.24 0.24 0.26 0.28 0.30 0.30 0.30 0.30 0.32 0.34 0.34 0.36 0.36 0.36 0.36 0.36 0.36 0.38 0.40 0.40 0.40 0.40 0.42 0.42 0.42 0.42 0.42 0.42 0.42 0.40 0.40 0.40 0.40
0.26 0.26 0.26 0.26 0.26 0.28 0.28 0.28 0.28 0.28 0.30 0.30 0.30 0.30 0.30 0.30 0.30 0.30 0.30 0.32 0.32 0.32 0.32 0.32 0.32 0.32 0.32 0.32 0.32 0.32 0.32 0.32 0.32 0.32 0.32 0.32 0.32 0.32 0.30 0.30 0.30 0.30 0.30 0.30 0.28 0.28 0.26 0.26 0.24 0.24 0.24 0.24 0.24 0.26 0.26 0.28 0.28 0.30 0.30 0.30 0.30 0.32 0.34 0.36 0.36 0.36 0.36 0.36 0.36 0.36 0.38 0.40 0.40 0.42 0.42 0.42 0.42 0.42 0.44 0.44 0.44 0.44 0.44 0.42 0.40 0.38
0.26 0.26 0.26 0.26 0.28 0.28 0.28 0.28 0.28 0.30 0.30 0.30 0.30 0.30 0.30 0.30 0.30 0.30 0.30 0.30 0.30 0.30 0.32 0.32 0.32 0.32 0.32 0.32 0.32 0.32 0.32 0.32 0.32 0.32 0.32 0.32 0.32 0.32 0.32 0.32 0.30 0.30 0.30 0.30 0.28 0.28 0.28 0.26 0.26 0.26 0.26 0.26 0.26 0.28 0.28 0.28 0.30 0.30 0.30 0.30 0.32 0.34 0.36 0.36 0.36 0.38 0.38 0.38 0.38 0.38 0.38 0.38 0.40 0.40 0.42 0.44 0.44 0.44 0.44 0.46 0.46 0.46 0.46 0.44 0.42 0.40
0.26 0.26 0.26 0.28 0.28 0.28 0.28 0.30 0.30 0.30 0.30 0.30 0.30 0.30 0.30 0.30 0.30 0.30 0.30 0.30 0.30 0.30 0.30 0.30 0.30 0.30 0.30 0.30 0.32 0.32 0.32 0.32 0.32 0.32 0.32 0.32 0.32 0.32 0.32 0.32 0.32 0.30 0.30 0.30 0.28 0.28 0.28 0.28 0.26 0.26 0.26 0.28 0.26 0.26 0.26 0.28 0.30 0.30 0.30 0.30 0.32 0.34 0.34 0.36 0.38 0.38 0.38 0.38 0.38 0.38 0.38 0.38 0.40 0.40 0.42 0.44 0.44 0.46 0.46 0.48 0.48 0.48 0.48 0.48 0.46 0.46
0.26 0.26 0.28 0.28 0.28 0.28 0.28 0.30 0.30 0.30 0.28 0.28 0.28 0.28 0.30 0.30 0.30 0.30 0.30 0.30 0.30 0.30 0.30 0.30 0.30 0.30 0.30 0.28 0.30 0.30 0.30 0.32 0.32 0.32 0.32 0.34 0.34 0.34 0.34 0.32 0.32 0.32 0.32 0.30 0.28 0.28 0.28 0.28 0.28 0.28 0.28 0.28 0.28 0.28 0.28 0.28 0.30 0.30 0.30 0.32 0.32 0.32 0.32 0.34 0.36 0.38 0.38 0.38 0.40 0.40 0.38 0.40 0.40 0.40 0.40 0.42 0.44 0.46 0.46 0.48 0.48 0.50 0.50 0.48 0.48 0.46
0.26 0.28 0.28 0.28 0.28 0.28 0.28 0.28 0.28 0.28 0.28 0.28 0.28 0.28 0.28 0.30 0.30 0.30 0.30 0.30 0.30 0.30 0.30 0.30 0.30 0.30 0.28 0.28 0.28 0.30 0.30 0.30 0.32 0.32 0.34 0.34 0.34 0.34 0.34 0.32 0.32 0.32 0.32 0.30 0.28 0.28 0.28 0.28 0.28 0.28 0.28 0.28 0.28 0.28 0.28 0.28 0.30 0.30 0.32 0.32 0.32 0.32 0.32 0.32 0.34 0.38 0.38 0.40 0.40 0.40 0.40 0.42 0.42 0.42 0.42 0.42 0.44 0.44 0.46 0.48 0.48 0.50 0.52 0.50 0.48 0.48
0.28 0.28 0.28 0.28 0.28 0.28 0.28 0.28 0.28 0.28 0.28 0.28 0.28 0.28 0.28 0.30 0.30 0.30 0.30 0.30 0.30 0.30 0.30 0.30 0.30 0.30 0.28 0.28 0.28 0.28 0.30 0.30 0.32 0.32 0.34 0.34 0.34 0.34 0.32 0.32 0.32 0.32 0.32 0.30 0.28 0.28 0.26 0.26 0.28 0.28 0.28 0.30 0.30 0.30 0.30 0.28 0.30 0.30 0.30 0.32 0.32 0.34 0.34 0.34 0.36 0.38 0.38 0.40 0.40 0.42 0.42 0.42 0.42 0.42 0.42 0.42 0.44 0.44 0.46 0.48 0.48 0.50 0.52 0.54 0.52 0.48
0.28 0.28 0.28 0.26 0.26 0.26 0.26 0.26 0.28 0.28 0.28 0.28 0.28 0.28 0.28 0.30 0.30 0.30 0.30 0.30 0.30 0.30 0.30 0.30 0.28 0.28 0.26 0.28 0.28 0.28 0.28 0.30 0.30 0.32 0.32 0.32 0.32 0.32 0.32 0.32 0.32 0.32 0.32 0.32 0.32 0.30 0.30 0.28 0.28 0.30 0.30 0.30 0.30 0.30 0.30 0.30 0.30 0.30 0.32 0.32 0.34 0.34 0.36 0.36 0.38 0.38 0.40 0.40 0.40 0.42 0.42 0.44 0.44 0.44 0.42 0.42 0.44 0.44 0.46 0.48 0.50 0.52 0.52 0.54 0.52 0.50
0.26 0.26 0.26 0.26 0.26 0.26 0.26 0.26 0.26 0.26 0.26 0.28 0.28 0.28 0.30 0.30 0.30 0.30 0.30 0.30 0.30 0.30 0.30 0.30 0.30 0.28 0.28 0.28 0.28 0.28 0.28 0.28 0.28 0.30 0.30 0.30 0.30 0.32 0.32 0.32 0.32 0.32 0.32 0.32 0.32 0.32 0.32 0.30 0.30 0.30 0.30 0.30 0.28 0.28 0.30 0.30 0.30 0.30 0.32 0.32 0.32 0.34 0.34 0.36 0.38 0.40 0.40 0.40 0.40 0.42 0.44 0.44 0.44 0.42 0.42 0.44 0.44 0.46 0.48 0.50 0.52 0.52 0.54 0.54 0.54 0.52
0.26 0.26 0.26 0.26 0.26 0.26 0.26 0.26 0.26 0.26 0.26 0.26 0.28 0.28 0.28 0.30 0.30 0.30 0.30 0.30 0.30 0.30 0.30 0.30 0.28 0.28 0.28 0.28 0.28 0.28 0.28 0.28 0.28 0.30 0.30 0.30 0.30 0.32 0.32 0.32 0.32 0.32 0.32 0.32 0.32 0.32 0.32 0.32 0.32 0.32 0.32 0.30 0.30 0.28 0.28 0.30 0.32 0.32 0.32 0.32 0.34 0.36 0.36 0.36 0.40 0.42 0.42 0.42 0.42 0.44 0.44 0.44 0.42 0.42 0.44 0.44 0.44 0.44 0.46 0.46 0.50 0.52 0.54 0.54 0.54 0.52
0.26 0.26 0.26 0.26 0.26 0.26 0.26 0.26 0.26 0.26 0.26 0.26 0.28 0.28 0.28 0.30 0.30 0.30 0.30 0.30 0.30 0.30 0.28 0.28 0.28 0.28 0.28 0.28 0.28 0.28 0.30 0.28 0.30 0.30 0.30 0.30 0.30 0.30 0.30 0.30 0.30 0.30 0.32 0.32 0.32 0.32 0.32 0.32 0.34 0.34 0.34 0.32 0.30 0.30 0.30 0.32 0.32 0.34 0.34 0.34 0.36 0.36 0.36 0.38 0.40 0.42 0.42 0.42 0.42 0.44 0.44 0.44 0.44 0.44 0.44 0.42 0.42 0.42 0.44 0.44 0.48 0.50 0.52 0.54 0.54 0.54
0.26 0.26 0.26 0.26 0.26 0.26 0.26 0.26 0.26 0.26 0.26 0.26 0.28 0.28 0.28 0.28 0.30 0.30 0.30 0.30 0.30 0.30 0.28 0.28 0.28 0.28 0.28 0.28 0.28 0.28 0.30 0.30 0.30 0.28 0.30 0.30 0.30 0.30 0.30 0.30 0.30 0.30 0.30 0.30 0.30 0.30 0.30 0.32 0.32 0.34 0.34 0.34 0.34 0.34 0.32 0.32 0.34 0.34 0.34 0.36 0.36 0.38 0.38 0.38 0.40 0.42 0.42 0.42 0.44 0.44 0.46 0.46 0.46 0.46 0.44 0.42 0.42 0.40 0.42 0.42 0.44 0.46 0.50 0.52 0.52 0.54
0.26 0.26 0.26 0.26 0.26 0.26 0.26 0.26 0.26 0.26 0.26 0.26 0.28 0.28 0.28 0.28 0.28 0.28 0.30 0.30 0.28 0.28 0.30 0.30 0.30 0.28 0.28 0.28 0.28 0.28 0.30 0.30 0.28 0.28 0.28 0.30 0.30 0.30 0.30 0.30 0.30 0.28 0.28 0.28 0.28 0.28 0.28 0.30 0.30 0.30 0.32 0.36 0.38 0.38 0.34 0.34 0.34 0.34 0.34 0.36 0.38 0.38 0.38 0.38 0.40 0.42 0.42 0.44 0.44 0.44 0.44 0.46 0.44 0.44 0.44 0.42 0.42 0.40 0.40 0.40 0.44 0.46 0.50 0.52 0.52 0.52
Wind_Speed
63 63 62 62 60 60 60 58 57 56 56 56 54 53 53 53 53 52 52 51 51 50 50 50 50 50 51 51 52 53 54 54 54 53 53 52 52 52 52 52 52 51 50 49 49 48 48 48 48 48 48 49 49 49 49 49 49 49 49 50 50 50 50 50 50 50 50 50 49 49 49 49 49 50 50 50 50 49 49 49 49 50 51 52 53 54
62 62 61 59 58 57 57 57 55 54 54 54 53 52 52 51 51 50 50 49 49 48 48 49 50 51 52 53 54 55 55 54 54 53 52 51 52 52 52 51 50 49 48 47 47 47 47 47 47 48 48 48 49 49 48 48 48 48 48 49 49 49 49 49 49 49 49 49 49 49 49 49 49 50 50 50 50 49 49 48 49 49 50 50 51 52
60 59 58 57 55 55 55 55 54 52 52 52 52 51 50 50 50 49 48 47 48 48 49 50 51 52 53 54 55 55 54 53 52 51 50 50 50 50 50 49 48 47 47 46 46 46 47 47 47 47 48 48 48 48 47 47 47 47 48 48 48 48 48 49 49 49 49 48 48 49 49 49 49 49 50 50 50 49 48 48 48 49 49 49 49 50
57 56 56 55 54 53 53 52 52 51 50 50 50 50 49 48 48 47 47 47 48 49 50 51 53 53 54 54 54 53 52 51 50 49 49 48 48 48 48 47 47 46 46 46 46 46 46 46 46 47 47 47 47 47 47 47 47 47 47 47 47 47 47 48 48 48 48 48 48 48 48 48 49 49 49 49 49 49 48 48 48 48 48 48 49 49
55 54 54 53 52 52 51 51 50 50 49 49 48 48 47 47 46 47 47 48 49 50 51 52 53 53 53 52 51 50 49 48 48 48 47 47 47 47 46 46 46 46 46 46 46 46 46 46 46 46 46 46 46 46 46 46 46 46 47 47 47 47 47 47 47 47 47 47 47 47 48 48 48 48 49 49 49 49 49 49 49 49 48 48 48 48
53 52 51 51 50 50 50 49 49 48 48 47 46 46 46 46 46 47 49 50 51 52 52 52 52 51 50 49 48 47 47 47 47 47 47 46 46 46 45 45 45 45 45 45 45 45 45 45 45 45 45 45 45 45 46 46 46 46 46 46 46 46 46 46 46 46 46 46 46 47 47 47 48 48 48 48 49 49 49 50 50 49 49 49 48 48
52 51 50 49 49 49 48 48 47 47 46 45 45 45 45 46 47 49 50 51 52 52 52 51 50 48 47 46 46 46 46 46 46 46 45 45 44 44 44 44 44 44 44 44 44 44 44 44 44 44 44 44 44 45 45 46 46 46 46 46 46 46 46 45 45 45 45 46 46 46 46 47 47 47 48 48 48 49 49 49 49 49 49 48 48 48
51 50 49 48 48 48 47 46 45 44 44 44 44 45 46 47 49 50 51 52 52 51 51 49 48 46 45 44 44 44 44 43 43 43 43 42 42 42 42 42 42 42 43 43 43 43 43 43 43 43 43 43 43 44 45 45 46 46 46 46 46 45 45 45 45 45 45 45 45 46 46 46 46 46 47 47 47 48 48 48 48 48 48 48 47 47
49 49 48 48 47 46 46 45 43 42 42 43 44 46 48 50 51 51 52 52 51 50 49 48 47 45 44 43 42 42 41 41 40 40 40 40 39 39 39 40 40 41 41 41 41 41 41 41 41 41 41 42 42 43 44 45 45 45 45 45 45 44 44 44 44 44 44 45 45 45 45 45 45 45 46 46 46 46 47 47 47 47 47 47 46 46
47 47 48 47 46 44 43 42 42 42 43 45 46 48 49 51 52 52 52 51 49 48 46 46 45 44 42 41 39 39 39 39 39 39 39 38 38 38 38 38 38 38 39 39 39 39 39 39 39 39 40 40 41 42 43 44 44 44 44 43 43 43 43 43 43 43 43 43 44 44 44 44 44 44 44 44 45 45 45 45 46 46 46 46 46 45
46 47 46 45 43 41 40 41 43 44 45 47 48 49 50 50 51 52 52 51 48 46 44 43 42 41 39 38 37 37 37 37 37 37 37 37 37 37 37 37 37 37 37 37 37 37 37 37 38 38 39 39 40 41 42 42 42 42 41 41 41 40 41 41 41 41 42 42 42 43 43 43 43 43 43 43 43 44 44 44 44 44 44 45 45 44
45 45 44 42 40 40 41 43 45 46 47 48 49 50 51 50 50 51 51 49 47 45 43 40 39 37 36 36 36 36 36 36 36 35 35 35 35 35 35 35 35 36 36 36 36 36 36 37 37 38 38 39 39 40 40 39 39 39 38 38 38 38 38 38 39 39 39 40 40 41 41 41 41 42 42 42 42 43 43 43 43 43 43 44 44 44
45 44 42 41 41 42 44 45 46 47 48 49 50 51 51 51 50 49 48 47 45 43 40 38 37 35 35 35 35 35 36 36 35 35 34 34 33 34 34 35 35 35 35 35 35 35 36 37 37 37 38 38 38 38 37 37 36 36 36 36 36 36 36 36 37 37 37 38 38 38 39 39 40 40 41 41 41 42 42 42 42 43 43 43 43 44
44 43 43 43 44 44 45 46 47 48 49 49 50 50 51 50 49 47 46 44 42 39 37 36 35 35 34 34 34 35 35 36 35 35 34 33 33 33 35 35 36 36 36 36 36 36 36 36 36 36 37 36 36 35 35 34 34 34 34 34 34 34 35 35 35 35 36 36 36 37 37 38 38 39 40 40 41 41 42 42 42 43 43 43 43 43
44 43 43 43 44 45 46 47 47 48 49 50 50 50 50 49 47 45 43 41 38 37 35 35 35 34 34 34 34 34 35 35 35 34 34 34 33 34 35 36 37 37 36 36 36 36 36 36 35 35 34 34 34 33 32 32 32 32 32 33 33 33 33 33 34 34 34 34 35 35 36 37 37 38 39 39 40 41 41 42 42 43 43 44 44 44
43 43 43 43 44 45 46 47 48 49 49 50 49 49 48 46 44 41 39 38 36 35 35 34 34 34 34 33 33 33 34 34 35 35 35 35 35 35 36 37 37 37 36 36 35 35 35 34 34 33 32 32 32 31 31 31 31 31 31 31 31 31 31 32 31 32 32 33 33 34 35 36 36 37 38 38 39 40 41 42 42 43 44 44 44 44
43 43 43 44 45 46 47 47 48 49 49 49 48 46 44 42 40 38 36 35 34 34 33 33 33 33 33 33 33 32 33 35 36 36 36 36 35 35 35 36 36 36 35 35 34 33 33 32 31 31 30 30 30 30 30 30 30 30 30 29 29 29 29 28 29 29 30 30 31 32 33 34 35 36 37 38 39 40 41 41 42 43 44 44 44 45
43 44 44 45 46 47 47 48 48 48 48 47 45 43 41 38 37 35 35 34 34 34 34 34 33 33 33 32 32 33 34 35 37 37 37 36 35 34 34 34 35 35 34 33 32 31 31 30 29 29 28 29 29 29 29 29 28 28 28 27 26 26 26 26 27 27 28 29 30 31 32 33 34 35 36 37 38 39 40 41 42 42 43 43 44 44
45 45 45 46 46 47 47 47 46 46 45 44 42 40 38 36 35 34 34 34 34 34 35 34 34 33 33 33 33 34 34 35 36 36 35 34 34 33 33 33 33 33 33 32 31 30 29 28 28 28 28 28 28 28 27 27 26 25 25 24 24 24 25 26 27 28 28 29 30 30 31 32 33 34 35 36 37 38 39 40 41 42 42 43 43 44
45 45 45 45 46 46 46 45 44 43 42 40 38 37 35 34 34 33 33 34 34 35 35 34 34 34 34 34 34 34 34 34 34 34 33 33 33 32 32 32 32 32 31 30 29 28 28 27 27 27 27 26 26 25 24 23 23 22 22 23 24 25 26 27 28 28 29 30 30 31 31 32 33 34 35 36 37 37 38 39 40 41 41 42 42 43
44 45 44 44 44 44 44 42 41 39 38 37 36 35 34 33 33 34 34 35 35 35 35 34 33 34 34 34 34 34 33 33 33 32 32 32 31 31 31 30 30 30 30 29 28 27 26 25 25 24 24 23 23 22 21 21 21 22 22 24 25 26 27 27 28 29 29 30 31 31 32 32 33 33 34 35 36 36 37 38 38 39 40 41 42 43
43 44 43 43 42 42 41 40 38 36 35 34 33 33 33 34 35 35 36 36 35 35 34 33 33 33 33 33 33 33 32 31 31 31 31 30 29 29 29 29 29 29 28 27 26 25 24 23 23 22 21 21 21 21 21 21 22 23 24 25 25 26 27 28 29 29 30 31 31 32 32 33 33 33 34 34 35 35 36 36 37 38 39 40 41 42
41 42 41 41 40 38 37 36 34 33 32 32 33 34 34 35 36 36 36 35 34 34 33 33 33 33 32 32 31 31 30 30 30 30 30 29 28 28 28 28 28 27 27 26 25 24 23 22 21 20 20 21 21 21 21 22 22 23 24 25 26 27 27 28 29 30 30 31 31 32 33 33 33 33 33 33 34 34 34 35 36 37 39 40 41 42
39 39 38 37 36 34 33 32 32 32 32 33 34 35 35 35 35 35 34 34 34 33 32 32 32 31 30 29 29 29 29 29 29 29 28 27 27 27 28 27 27 27 26 25 24 23 22 22 21 20 20 20 20 20 21 21 22 23 24 25 26 27 27 28 29 30 31 31 32 32 33 33 33 33 33 33 33 34 34 35 36 38 39 40 41 42
36 35 34 33 32 31 31 31 32 33 34 34 34 34 34 34 34 33 33 33 32 31 30 30 29 28 27 27 28 29 29 29 28 27 27 26 26 27 27 27 26 26 25 24 24 23 22 22 21 20 19 19 19 20 20 21 22 23 24 25 26 27 28 29 30 30 31 31 32 33 33 33 33 33 33 33 33 34 35 36 37 38 39 40 41 42
33 32 31 31 31 31 32 33 34 35 35 35 34 34 33 33 32 31 31 30 29 28 27 26 26 26 26 27 28 28 28 28 26 26 25 25 26 27 27 26 26 25 25 24 24 23 23 22 21 20 19 19 19 19 20 20 21 22 23 24 25 26 28 29 29 30 30 31 32 33 33 33 33 32 32 33 33 34 35 36 37 38 39 40 41 41
30 30 30 31 31 32 33 34 34 35 35 34 33 32 31 30 30 29 28 27 26 26 25 25 25 25 25 26 27 28 28 27 26 25 25 25 25 26 26 26 25 25 25 25 24 24 23 22 21 20 19 19 18 19 19 20 21 22 23 24 25 26 28 28 29 29 30 32 33 33 33 32 31 31 32 32 33 33 34 35 36 37 38 38 39 40
28 29 29 30 31 32 33 33 33 33 33 32 32 31 29 28 27 26 26 26 26 25 25 24 25 25 25 25 27 28 28 27 25 24 24 25 24 24 25 25 25 25 26 26 25 24 23 21 20 19 18 18 18 18 19 19 21 22 23 24 25 26 27 28 28 29 31 32 32 32 31 31 31 31 31 31 31 32 33 33 34 35 36 36 36 37
28 29 30 30 31 31 32 32 31 31 30 30 29 28 26 25 25 25 25 26 25 25 25 24 24 25 25 26 27 28 27 26 25 24 24 24 24 24 25 26 26 25 25 25 25 23 21 19 18 17 17 17 17 17 18 19 20 21 22 24 25 26 27 27 28 29 31 31 31 30 30 29 29 29 29 29 30 30 31 32 32 33 33 33 34 35
28 29 29 29 30 30 29 29 29 28 28 27 27 26 25 25 25 25 25 26 25 25 25 25 25 25 25 26 26 26 25 25 24 23 23 23 24 24 25 26 25 25 25 24 23 22 20 18 17 16 16 17 17 17 17 18 19 20 22 23 25 25 26 26 27 29 30 30 29 28 28 27 27 27 27 27 28 28 29 29 30 30 29 30 31 32
28 28 28 28 28 27 27 26 26 25 25 25 25 25 25 25 25 25 25 25 25 25 25 25 25 25 25 25 24 24 24 25 24 23 24 24 24 24 25 25 25 25 24 23 22 21 20 18 17 17 17 17 17 17 17 18 19 20 21 22 23 24 24 25 27 28 28 27 26 25 25 25 25 25 25 25 25 25 26 26 26 26 26 27 28 29
27 27 27 26 26 25 25 24 24 23 23 24 24 24 24 25 25 25 25 25 25 25 25 25 25 25 25 24 24 24 24 25 25 24 24 24 24 24 24 24 24 24 23 22 21 20 20 19 18 18 18 17 17 16 17 18 19 19 21 22 22 22 23 25 26 26 25 23 22 22 22 22 22 22 22 22 21 21 21 22 22 22 22 23 24 26
26 26 25 25 24 24 23 23 23 23 23 23 24 24 24 25 25 25 25 25 25 25 25 25 25 25 25 25 25 26 26 26 26 25 25 24 24 24 24 24 24 24 23 22 21 21 20 19 19 19 19 17 16 16 17 17 18 19 20 21 21 22 23 25 24 23 21 19 19 19 19 19 19 19 18 18 17 17 17 17 18 18 19 20 21 22
25 25 24 24 23 23 22 22 22 23 23 23 24 24 24 24 25 25 25 25 25 25 25 25 25 25 25 25 25 26 26 26 26 26 26 25 24 24 24 24 23 23 22 21 21 20 20 19 19 18 17 17 16 16 17 17 18 19 19 20 21 22 23 23 21 19 17 16 16 16 16 16 16 16 15 15 14 14 14 14 14 15 16 17 18 19
24 24 23 23 22 22 22 22 22 23 23 23 23 24 24 24 25 25 25 25 25 25 25 25 25 25 25 25 25 26 26 27 27 27 26 26 25 25 25 24 23 23 22 21 20 19 18 18 18 17 17 17 17 17 16 17 18 19 19 20 21 21 21 19 17 15 14 13 13 13 13 14 14 14 13 13 13 12 12 11 11 12 13 14 16 17
23 23 22 22 22 22 22 22 22 22 23 23 23 24 24 24 25 25 25 25 25 26 26 26 26 26 26 26 26 26 27 27 27 27 26 26 25 25 25 24 24 23 22 21 20 19 19 18 18 18 18 17 16 16 16 17 18 18 19 19 20 20 18 16 14 13 12 12 12 12 13 13 13 13 13 13 13 12 11 11 10 10 11 12 14 16
22 22 22 22 22 22 22 22 22 22 22 23 23 24 24 24 25 25 26 26 26 26 26 26 26 26 26 26 26 26 26 26 26 26 26 25 25 25 25 25 24 23 22 22 21 20 20 19 19 18 17 16 15 15 16 17 18 18 18 18 18 18 16 14 13 13 12 12 12 12 12 12 12 12 12 13 12 12 11 10 9 9 9 10 12 14
22 22 22 22 22 22 22 22 22 22 22 23 23 24 24 25 25 26 26 26 26 26 26 26 26 26 26 26 26 26 26 26 26 25 25 25 24 24 24 24 24 23 22 22 21 21 20 19 19 18 17 16 15 16 17 17 17 17 17 17 17 16 15 14 14 13 12 11 11 11 10 11 11 11 11 11 11 10 9 8 7 7 7 7 9 12
22 22 22 22 22 22 22 22 22 22 22 23 23 24 24 25 25 25 25 26 26 26 26 26 26 26 26 26 26 25 25 25 25 24 24 24 23 23 23 23 23 23 22 21 21 20 20 19 18 17 17 16 16 16 16 16 15 15 16 16 15 14 14 14 14 14 13 12 11 10 9 9 9 10 10 10 10 9 8 6 5 5 5 5 7 9
22 22 22 23 23 22 22 22 22 22 23 23 24 24 24 25 25 25 25 25 25 26 26 26 26 26 26 25 25 25 25 24 24 24 23 23 22 22 22 22 22 21 21 20 20 19 19 18 17 17 17 16 15 15 14 14 14 14 14 13 12 12 13 14 14 14 13 12 11 10 9 9 9 9 9 9 9 8 7 4 3 2 4 5 7 8
23 23 23 23 23 23 23 23 23 23 23 23 24 24 24 24 24 24 24 25 25 25 26 26 26 26 25 25 25 24 24 24 24 23 23 23 22 22 21 20 20 20 19 19 19 18 18 17 17 17 16 15 14 13 12 12 12 13 13 11 10 12 13 13 13 13 13 13 12 11 10 9 9 8 8 8 8 7 6 4 2 0 3 5 8 9
23 23 23 23 23 23 23 24 24 24 24 24 23 23 24 24 24 24 24 24 25 25 25 26 26 26 25 25 24 24 24 24 24 23 23 22 22 21 20 19 19 18 18 18 18 17 17 16 15 14 13 12 11 10 10 10 11 11 11 9 10 11 13 13 13 13 14 14 13 12 11 10 9 8 8 7 7 6 5 4 3 1 2 5 7 10
23 23 23 23 23 24 24 24 24 24 24 23 23 23 23 23 23 24 24 24 24 25 25 25 25 25 25 24 24 24 24 24 24 23 23 22 21 20 19 18 17 17 17 16 16 15 14 13 12 12 11 10 9 8 8 9 11 11 10 9 9 10 11 13 14 14 14 15 14 13 11 10 9 8 8 7 7 6 5 3 2 1 2 4 7 9
22 23 23 23 24 24 24 24 24 24 24 23 23 23 23 23 23 23 23 24 24 25 25 25 25 24 24 24 24 24 24 24 24 23 22 21 20 18 17 17 16 15 15 14 14 13 12 11 10 10 9 8 7 7 7 9 10 10 9 9 9 10 12 14 15 15 15 15 15 14 12 11 9 9 8 7 6 5 4 3 2 1 3 4 6 8
22 23 23 24 24 25 25 25 24 24 24 23 23 23 23 23 23 23 23 23 24 24 24 24 24 23 23 23 23 24 24 24 23 22 21 20 19 18 16 15 14 14 13 12 11 10 9 9 8 7 7 6 6 7 8 9 9 9 8 9 10 12 13 14 14 14 15 15 16 15 14 12 11 10 9 8 7 6 4 3 1 1 3 4 6 7
22 23 24 24 25 25 25 25 24 24 23 23 22 22 22 23 23 23 23 23 23 23 24 23 23 23 22 23 23 24 24 23 23 22 21 19 18 17 15 14 13 13 12 11 10 9 7 7 6 6 6 6 7 8 9 9 8 8 8 9 11 13 14 14 14 14 14 14 15 15 14 14 13 12 11 10 8 7 6 4 3 3 3 5 6 7
23 24 24 25 25 25 25 24 24 23 23 22 22 22 22 22 22 22 23 23 23 23 23 23 23 22 22 23 23 23 23 23 22 21 20 19 17 16 15 14 13 13 12 10 9 7 6 5 5 5 5 6 8 8 8 9 9 9 10 11 13 14 14 15 15 14 14 13 14 14 15 14 13 13 12 11 10 9 8 8 7 5 4 4 6 7
24 24 24 25 25 25 24 24 23 23 23 23 23 22 22 22 22 22 22 22 22 22 22 22 22 22 22 22 23 23 22 22 21 20 19 18 17 16 15 15 14 13 12 10 8 7 6 5 5 5 5 6 7 9 10 11 12 12 13 13 14 14 15 15 14 14 13 13 14 14 15 14 14 13 13 12 11 11 10 10 9 7 6 5 6 7
24 24 25 25 25 24 24 23 23 23 22 23 23 23 22 22 22 22 22 22 22 22 22 22 22 22 22 22 22 22 22 21 20 19 18 17 16 16 15 15 15 14 13 11 9 8 7 7 6 6 6 7 8 11 13 14 15 15 15 15 15 15 14 14 14 13 13 13 14 15 15 15 14 13 13 12 11 11 11 11 10 9 8 6 6 7
24 25 25 24 24 24 23 23 23 22 22 23 23 23 23 22 22 22 21 21 21 21 21 21 22 21 21 21 22 22 21 20 19 18 18 17 16 16 16 15 15 14 13 12 11 10 9 9 8 9 9 10 11 12 14 15 16 16 16 15 15 14 14 13 13 13 14 14 15 16 16 16 15 14 13 12 11 11 11 12 12 11 10 8 7 7
25 25 24 24 23 23 23 23 22 22 22 22 23 23 23 22 22 21 21 21 21 21 21 21 21 21 21 21 21 21 20 20 18 18 17 16 16 16 15 15 15 14 13 12 12 11 11 11 11 11 12 13 14 14 15 16 16 17 17 16 15 15 13 13 13 14 15 15 16 16 16 16 16 15 14 13 12 11 11 12 13 13 13 11 9 7
Wind_Direction
302 302 302 302 301 301 300 300 299 299 299 298 298 298 298 298 298 298 299 299 299 299 298 298 298 297 297 297 297 297 297 296 296 295 293 292 292 292 291 291 290 289 287 286 284 283 282 282 281 281 280 280 279 278 277 276 275 274 273 273 272 272 271 270 270 269 268 267 266 266 265 264 263 263 262 261 260 260 259 258 257 257 256 256 254 253
302 302 302 301 301 301 300 300 299 299 299 299 299 299 299 299 299 299 300 300 300 300 300 299 299 299 298 298 298 298 297 297 296 294 293 292 292 291 291 290 290 288 287 285 284 283 282 282 282 281 281 280 280 279 278 277 276 275 274 273 272 272 271 271 270 269 268 268 267 266 265 265 264 263 262 261 261 260 259 258 257 257 256 256 255 254
302 302 302 302 301 301 300 300 300 299 299 299 299 299 300 300 300 300 301 301 301 301 301 300 300 300 299 299 298 298 297 296 295 294 293 292 291 291 291 290 289 288 287 285 284 283 283 282 282 281 281 281 280 279 278 277 277 276 275 274 273 272 272 271 270 269 269 268 267 266 266 265 264 263 263 262 261 260 259 258 257 257 256 256 255 254
302 302 302 302 301 300 300 300 300 300 300 300 300 300 300 301 301 302 302 302 302 302 302 301 301 300 300 299 298 298 297 296 295 294 293 292 292 291 291 290 289 288 287 286 285 284 283 282 281 281 280 280 280 279 279 278 278 277 276 275 274 273 272 271 270 270 269 268 267 267 266 265 264 264 263 262 261 260 259 258 258 257 256 256 255 255
302 302 302 302 301 301 300 300 300 300 300 300 300 301 301 302 302 303 303 303 303 303 302 302 302 301 300 299 298 297 297 296 295 294 294 293 293 292 291 290 289 288 287 286 284 283 282 282 281 280 280 280 279 279 279 279 278 278 277 276 275 274 273 272 271 270 269 268 268 267 266 265 264 264 263 262 261 260 259 258 258 257 256 256 255 255
302 302 302 301 301 301 301 301 301 301 301 301 301 302 302 303 303 303 303 304 304 304 303 303 302 301 300 299 299 298 297 296 296 295 294 294 293 292 291 290 289 288 287 285 284 283 282 282 281 280 280 279 279 279 279 279 278 278 277 276 276 275 273 272 271 270 270 269 268 267 267 266 265 264 263 262 261 260 259 258 258 257 257 256 255 255
302 302 301 301 301 300 301 301 301 302 302 302 303 303 303 303 303 303 303 304 304 304 304 303 303 302 301 300 299 299 298 297 297 296 295 294 293 292 291 290 289 288 287 286 285 284 283 282 281 280 279 279 279 278 278 278 278 278 277 277 276 275 274 273 272 271 270 270 269 268 267 266 265 264 263 262 261 260 260 259 258 258 257 256 255 254
302 302 301 301 301 301 301 301 302 302 303 303 304 304 303 303 303 303 304 304 305 305 305 304 304 303 302 301 300 299 299 298 297 296 295 294 293 292 291 290 289 288 288 287 286 284 283 282 281 280 279 279 278 278 278 278 278 277 277 277 276 275 274 273 272 272 271 270 270 269 268 267 266 265 263 262 261 260 260 259 258 257 256 255 253 252
301 301 301 301 301 301 302 302 303 303 303 303 303 303 303 303 304 304 305 305 305 306 306 306 305 304 302 301 301 300 299 298 298 297 296 295 294 292 291 291 290 289 289 288 287 285 284 283 282 281 280 280 279 279 279 278 278 278 277 277 276 275 274 273 273 272 271 270 270 269 268 267 266 265 263 262 261 260 259 258 257 256 255 254 252 251
301 301 301 301 301 302 302 303 303 304 304 303 303 302 303 304 305 306 306 306 306 307 307 306 305 304 303 302 301 300 300 299 298 297 296 295 294 293 292 292 291 290 290 289 288 287 285 284 283 282 282 281 280 280 280 279 279 278 278 277 276 275 274 273 273 272 271 270 269 269 268 267 266 264 263 262 260 259 258 257 256 255 254 252 251 250
302 302 302 302 302 303 303 303 303 304 304 303 303 303 304 305 306 307 308 308 308 307 307 306 305 304 303 302 302 301 301 300 299 298 298 297 296 295 294 293 293 292 292 291 290 288 287 286 285 284 283 283 282 281 281 280 280 279 278 277 276 275 274 273 272 272 271 270 269 269 268 267 266 265 263 262 260 259 258 256 255 254 253 251 250 249
302 303 303 303 303 303 303 303 303 304 304 304 305 305 306 306 307 308 308 308 308 308 307 306 304 303 303 303 303 302 302 301 301 300 300 299 298 298 297 296 296 295 295 293 292 291 289 288 287 286 285 284 284 283 282 282 281 280 279 278 277 276 275 274 273 272 271 270 270 269 268 267 266 265 264 262 260 259 257 256 254 253 252 251 250 249
303 303 303 303 302 303 303 304 304 305 305 305 306 306 307 308 308 308 307 306 306 306 306 305 304 304 304 304 304 304 303 302 302 301 301 301 301 300 300 299 298 297 296 295 293 292 290 289 288 287 287 286 285 285 284 283 282 281 280 279 277 276 275 274 274 273 272 271 270 269 269 268 267 266 264 263 261 259 257 255 254 252 251 250 250 249
303 303 303 303 303 303 304 305 305 305 305 306 306 306 307 307 307 307 306 306 305 305 305 305 304 304 305 305 305 305 304 303 302 302 302 301 301 301 301 300 299 298 296 295 293 292 291 290 290 289 288 287 286 285 284 283 282 281 280 279 278 277 276 275 274 274 273 272 271 270 270 269 268 267 265 263 261 259 257 255 254 252 251 251 250 250
303 303 303 303 303 304 304 304 304 304 305 305 306 306 306 307 307 306 306 305 305 305 305 304 304 305 305 306 306 306 305 304 303 302 302 302 301 301 300 299 298 297 296 294 293 292 292 291 290 289 288 287 286 285 284 283 282 281 280 279 278 277 276 276 275 274 273 273 273 272 271 270 269 267 266 264 262 260 258 256 255 254 253 252 251 250
303 302 302 302 302 303 303 303 303 304 304 305 305 306 306 306 306 306 305 305 305 306 306 306 306 306 306 306 307 307 306 304 303 302 302 301 301 300 300 299 298 297 296 294 294 293 292 291 290 289 288 287 286 285 283 282 281 280 280 279 278 278 277 276 276 276 276 275 275 274 273 271 269 267 265 264 262 261 259 258 256 255 254 253 252 251
302 302 301 301 301 302 302 303 303 303 304 305 305 305 305 305 305 305 305 305 306 307 307 308 309 308 308 308 308 307 306 304 303 302 302 301 301 301 300 299 298 297 297 295 294 293 292 291 290 289 288 287 285 284 283 282 282 281 280 280 279 278 278 277 278 279 279 278 277 276 275 273 271 268 266 264 263 261 260 258 257 256 255 253 252 251
301 301 301 301 301 301 302 302 303 303 304 305 305 305 305 305 305 305 305 306 307 308 308 309 309 309 309 309 308 307 306 304 303 302 302 302 302 302 302 301 299 298 298 296 295 293 292 291 290 289 288 287 285 285 284 283 283 282 281 280 279 279 279 279 280 280 280 280 279 278 277 275 273 270 268 266 264 262 260 259 257 256 255 253 252 250
300 300 300 300 300 301 301 302 303 304 304 305 305 306 305 305 305 305 306 307 308 309 309 309 309 308 308 308 308 307 306 304 303 303 303 304 305 305 305 303 301 300 298 297 295 294 292 292 291 290 288 287 286 285 284 284 283 282 281 281 280 281 281 282 283 283 283 282 281 280 278 276 274 272 270 268 265 263 261 259 258 256 254 253 251 249
299 299 299 300 300 300 301 302 303 304 305 305 305 305 305 306 307 307 308 309 309 309 309 308 308 308 308 307 307 307 306 305 304 304 305 306 307 307 306 304 303 301 299 297 295 294 293 292 291 290 288 287 286 285 284 283 283 283 283 283 284 286 287 287 287 287 287 286 284 282 280 277 275 273 271 269 266 264 262 260 258 256 254 252 250 248
298 299 299 299 300 300 301 303 304 305 305 306 306 306 306 308 309 310 310 310 309 309 308 308 308 308 308 307 307 307 307 307 306 307 308 308 308 307 307 305 304 302 300 298 296 295 293 292 290 289 288 287 286 285 285 285 286 287 288 290 291 292 293 293 293 292 291 289 288 285 282 280 276 273 271 269 266 264 262 260 258 255 253 251 250 248
298 298 299 300 300 300 301 303 305 306 307 307 307 308 309 310 310 310 310 310 309 309 308 308 308 308 307 306 306 307 308 308 308 309 310 310 309 308 308 307 306 304 301 299 298 296 294 291 290 288 288 287 287 287 288 290 291 293 294 295 296 296 296 296 295 294 293 291 289 287 285 282 279 275 272 269 266 264 262 259 257 255 253 251 249 248
298 299 300 300 301 301 303 304 306 307 308 309 309 309 310 310 310 310 310 310 309 309 308 308 308 307 306 306 306 307 308 309 310 310 310 310 310 310 310 309 308 306 303 301 300 298 295 293 292 291 290 289 289 290 292 293 295 296 297 298 298 298 297 297 296 295 294 292 290 287 285 283 280 276 273 270 267 264 261 259 257 255 253 251 249 247
299 300 300 301 302 303 305 306 307 309 309 309 309 309 310 310 310 310 309 309 309 308 308 308 307 307 306 307 308 309 310 311 312 312 311 311 311 311 311 311 310 308 305 303 302 300 298 295 294 292 291 290 290 292 294 295 296 297 298 298 298 297 297 297 296 295 293 291 288 286 284 282 279 276 273 270 267 264 262 259 257 255 253 251 249 247
301 301 302 303 305 306 307 308 308 309 310 310 311 311 311 311 310 310 309 309 309 309 309 308 308 308 308 309 310 310 311 313 314 314 313 313 312 311 311 311 310 308 306 305 304 303 301 298 296 293 291 290 291 293 295 296 297 298 298 298 298 298 297 297 295 293 291 289 287 286 284 282 279 276 273 270 267 265 262 259 257 255 253 251 249 247
303 304 305 306 307 308 308 309 309 310 311 311 311 312 311 311 311 310 310 310 310 310 310 310 310 310 311 312 312 312 313 315 316 316 315 314 313 312 311 311 311 309 307 307 306 305 303 300 297 294 292 292 293 295 296 297 298 299 299 299 299 298 297 296 295 292 290 288 287 286 285 282 279 276 274 271 268 266 263 261 258 256 254 252 250 247
307 307 308 309 309 310 310 311 311 311 311 311 311 311 311 311 311 310 310 311 312 313 313 312 313 313 314 314 313 313 314 317 318 319 317 315 313 312 312 313 312 310 309 308 307 305 303 299 296 294 293 294 296 297 298 299 300 300 301 301 300 299 298 297 295 292 290 289 289 288 286 283 280 277 274 272 269 267 264 262 259 257 254 252 250 247
311 312 312 312 313 313 313 313 312 312 312 311 311 311 311 312 312 312 313 314 315 315 314 314 314 315 316 315 314 314 315 317 320 321 320 317 315 314 314 314 313 311 309 308 307 305 302 299 296 295 295 297 299 300 301 302 303 303 303 303 302 301 299 297 294 292 291 291 290 288 286 283 281 278 276 273 271 268 265 263 260 257 255 252 249 246
315 315 315 315 315 315 314 314 313 312 312 311 311 312 313 313 313 314 315 316 316 316 315 315 316 316 316 316 315 315 316 318 322 323 323 320 317 316 315 315 313 311 310 309 308 306 302 299 298 298 299 301 303 305 306 306 307 306 306 304 303 301 299 296 293 292 292 292 291 289 286 284 282 280 278 276 273 271 268 265 262 259 256 252 249 245
317 317 317 317 316 316 315 314 313 313 313 313 313 315 316 316 315 315 316 317 317 316 316 316 316 316 317 317 317 317 318 320 323 325 324 321 319 318 317 316 314 313 313 312 311 309 305 302 301 302 304 305 306 308 309 310 310 309 308 306 304 302 299 296 295 294 294 294 292 290 288 287 285 283 282 280 278 275 272 269 265 261 257 253 249 245
319 319 319 318 317 316 315 314 314 314 315 316 317 318 318 318 318 317 318 318 317 317 316 316 316 317 317 318 318 319 320 321 323 324 322 320 318 318 318 318 317 316 315 314 313 311 308 305 304 305 307 308 309 310 311 312 312 311 310 308 306 304 302 299 298 298 297 296 294 293 292 291 290 289 287 285 283 280 277 272 268 263 258 253 249 245
321 320 319 319 318 317 316 316 317 318 319 320 320 321 320 320 319 319 319 319 318 317 317 316 316 317 317 317 317 317 319 320 321 321 320 317 316 317 319 320 319 318 317 315 313 310 308 306 307 308 309 310 311 313 314 314 314 313 312 311 309 307 305 304 303 302 301 300 298 298 297 296 295 295 293 292 289 286 282 276 271 264 258 253 248 244
321 321 320 319 319 319 319 320 321 322 322 323 323 323 322 322 321 321 321 321 320 319 318 317 317 317 317 316 316 316 316 317 319 319 318 316 315 315 318 319 320 320 319 317 314 311 308 307 308 310 311 313 315 317 318 318 317 316 315 314 312 310 308 308 307 307 306 305 305 304 303 303 303 302 301 300 297 293 288 282 274 266 259 252 246 241
322 322 321 321 321 322 323 324 324 325 325 325 325 324 324 324 324 324 323 323 322 321 320 319 318 318 318 318 317 317 316 317 318 318 317 315 313 313 314 317 319 321 321 320 318 316 313 311 311 314 316 318 319 320 321 320 319 318 317 315 313 312 312 312 312 313 314 314 314 314 313 313 313 312 311 308 305 301 295 287 278 268 259 251 244 238
323 323 323 324 325 326 327 327 327 327 327 327 326 326 326 326 326 326 326 325 325 323 322 321 320 319 318 318 318 318 317 318 318 318 316 314 312 311 311 313 316 319 320 321 321 321 319 317 317 319 321 322 323 322 322 321 320 319 318 315 314 313 314 316 319 322 324 324 324 324 324 324 323 322 319 316 312 306 300 293 283 271 260 250 242 235
325 325 326 327 329 329 329 330 329 329 329 328 328 328 328 328 328 328 328 328 327 326 324 323 322 321 320 319 318 318 318 319 319 318 317 314 312 311 309 310 312 315 316 318 320 321 321 320 320 321 322 323 324 324 323 321 320 319 318 316 314 315 316 320 325 329 330 331 331 331 330 330 329 327 324 320 315 310 304 297 287 276 263 250 240 232
327 328 329 331 331 331 331 331 331 330 330 330 330 330 329 329 329 330 330 330 329 328 327 325 324 323 322 321 320 319 319 320 320 319 317 315 313 311 308 308 309 311 311 314 316 318 319 320 321 322 322 323 324 325 323 322 321 320 318 316 316 317 320 325 329 331 331 331 331 331 332 332 332 330 328 323 318 313 307 300 291 279 265 251 238 229
329 331 332 333 333 332 332 332 331 331 331 331 331 330 330 330 330 330 331 331 330 329 328 327 327 325 324 323 322 321 321 321 321 320 318 317 314 311 309 308 308 308 309 311 313 315 316 317 319 321 322 323 323 322 321 322 322 320 318 317 318 321 326 330 331 331 330 329 329 330 331 333 335 336 334 330 325 319 312 304 293 279 264 247 233 222
332 333 333 333 333 333 333 332 332 332 332 331 331 331 330 330 330 330 331 331 331 330 329 329 328 327 326 325 325 324 324 323 323 322 321 319 317 314 311 309 308 308 309 310 312 313 313 314 317 319 322 323 322 320 319 320 320 319 318 319 322 326 331 332 331 329 329 329 329 329 330 333 337 340 341 340 336 328 317 307 292 274 254 234 219 211
333 333 334 334 334 334 333 333 332 332 332 332 331 331 331 330 331 331 331 331 331 331 330 330 329 329 329 328 328 328 327 327 327 326 324 322 320 317 313 311 310 310 311 312 312 313 313 313 315 316 318 320 320 319 319 319 318 318 320 323 326 331 334 333 330 329 330 331 330 329 329 330 333 336 339 339 336 331 326 321 304 260 227 211 200 194
334 334 334 335 335 335 334 334 333 333 333 332 332 331 331 331 331 331 332 332 332 332 332 332 331 331 331 331 331 331 331 330 330 329 328 325 322 319 316 314 313 313 314 314 314 314 314 314 314 314 315 315 315 315 316 317 317 319 322 325 329 331 333 333 333 335 336 337 336 333 330 328 328 330 332 332 331 330 333 339 344 275 197 193 189 185
334 334 335 335 335 335 335 334 334 334 333 333 332 332 332 332 332 332 332 333 333 333 334 333 333 333 333 334 334 334 334 334 333 332 330 328 326 323 320 318 317 317 317 318 317 316 315 314 313 312 312 313 314 315 317 318 320 323 325 326 329 331 333 337 341 345 345 344 345 344 340 334 330 329 330 332 333 335 342 348 358 26 160 177 182 184
335 335 335 336 336 335 335 334 334 334 334 334 333 333 333 333 333 333 333 333 333 334 334 334 334 335 335 335 336 337 337 337 336 335 334 332 330 328 325 324 322 322 322 322 321 319 317 314 312 311 312 316 318 320 320 321 324 326 327 328 330 334 340 345 350 353 352 351 352 354 353 347 341 336 336 338 341 345 352 2 19 78 146 170 180 185
335 336 336 336 336 335 335 335 334 335 335 334 334 334 334 334 334 334 334 334 334 334 335 335 336 336 336 337 338 339 339 339 339 338 337 336 335 334 332 330 329 328 327 326 325 323 321 318 316 317 321 326 328 327 325 324 326 329 330 330 331 334 341 348 353 356 356 355 357 360 3 3 0 357 355 355 355 358 4 15 47 119 155 169 178 183
336 336 336 336 336 335 335 334 334 335 335 335 335 335 335 336 336 336 335 335 335 336 336 337 337 338 339 340 341 341 341 341 341 341 342 341 340 339 338 337 336 335 334 332 330 328 327 326 327 331 337 339 335 328 325 328 332 335 336 337 339 342 347 353 359 2 0 357 356 360 6 11 13 15 15 17 17 19 21 27 48 125 154 166 173 179
336 336 336 336 335 335 334 334 335 336 336 337 337 337 337 337 337 337 337 337 337 337 338 339 339 340 341 342 343 343 343 343 343 344 345 346 346 346 346 345 345 344 343 341 338 334 333 334 339 344 347 344 339 336 336 342 348 352 352 351 352 356 1 6 9 9 5 358 356 360 7 13 19 23 26 30 32 34 36 43 57 84 122 151 165 175
336 336 335 335 335 334 334 335 336 336 337 338 338 339 339 339 339 339 339 339 339 339 340 340 341 341 342 343 345 345 345 345 346 347 348 349 351 352 352 352 351 351 351 351 349 346 343 344 348 350 350 349 352 357 5 13 18 16 12 8 8 10 13 16 16 13 7 1 0 5 11 16 20 23 27 31 35 38 42 48 54 66 93 133 157 169
336 335 335 334 334 334 335 336 337 337 337 338 339 339 340 340 340 340 341 341 342 342 342 342 342 343 344 345 347 347 347 347 348 349 351 353 355 356 356 356 357 358 1 3 5 6 6 6 5 4 2 8 18 29 35 37 36 32 28 24 22 22 21 21 19 14 8 6 8 13 16 19 21 22 25 29 34 40 45 48 53 60 76 113 146 162
335 334 334 334 334 335 336 337 337 338 338 338 338 339 340 341 341 342 342 343 344 344 344 343 343 344 346 347 348 349 349 349 350 352 354 356 357 358 359 0 1 4 8 15 23 29 30 29 29 32 37 40 47 49 48 45 42 39 36 33 30 27 24 23 20 16 13 15 18 21 23 25 27 28 30 32 37 43 48 51 54 58 67 90 125 151
334 334 333 334 335 335 336 337 338 338 338 338 338 339 340 341 342 343 344 345 345 345 345 345 345 346 347 349 350 351 352 352 353 354 356 358 360 1 3 4 6 8 13 22 31 38 42 43 46 51 57 60 61 59 54 48 44 41 38 35 32 29 27 26 23 22 23 25 26 26 26 28 31 33 35 37 42 48 51 53 54 57 63 78 104 133
333 333 333 334 335 336 337 337 338 338 338 338 338 339 339 340 342 343 345 346 346 347 346 346 346 347 348 350 351 353 353 354 355 356 358 0 2 4 6 8 11 14 18 26 34 40 45 49 54 60 65 65 64 62 58 51 45 41 39 37 35 33 33 31 29 29 31 32 32 31 31 32 33 36 38 41 46 51 54 54 54 56 61 71 87 111